Weather History for KDAW - April, 2013

Change the Weather History Date:

Sunday, April 7, 2013

  Actual Average (KSFM) Record (KSFM)
Temperature  
Mean Temperature 39 °F -  
Max Temperature 55 °F 48 °F 71 °F (1997)
Min Temperature 23 °F 27 °F 12 °F (2003)
Degree Days  
Heating Degree Days 26    
Moisture  
Dew Point 21 °F    
Average Humidity 48    
Maximum Humidity 71    
Minimum Humidity 27    
Precipitation  
Precipitation 0.00 in - - ()
Sea Level Pressure  
Sea Level Pressure 30.12 in    
Wind  
Wind Speed 5 mph (SSW)    
Max Wind Speed 13 mph    
Max Gust Speed 22 mph    
Visibility 10 miles    
Events Rain    
Averages and records for this station are not official NWS values.
T = Trace of Precipitation, MM = Missing Value Source: NWS Daily Summary

Daily Weather History Graph

Daily Weather History Graph

Search for Another Location

Airport or City:

Trip Planner

Search our weather history database for the weather conditions in past years. The results will help you decide how hot, cold, wet, or windy it might be!

Date:

Astronomy

Apr. 07, 2013 Rise Set
Actual Time 6:14 AM EDT 7:17 PM EDT
Civil Twilight 5:45 AM EDT 7:46 PM EDT
Nautical Twilight 5:10 AM EDT 8:21 PM EDT
Astronomical Twilight 4:34 AM EDT 8:58 PM EDT
Moon 4:34 AM EDT (4/7) 4:42 PM EDT (4/7)
Length of Visible Light 14h 01m
Length of Day
13h 02m
Waning Crescent, 8% of the Moon is Illuminated
Apr 7
Waning Crescent
Apr 10
New
Apr 18
First Quarter
Apr 25
Full
May 2
Last Quarter

Hourly Weather History & Observations

Time (EDT) Temp. Windchill Dew Point Humidity Pressure Visibility Wind Dir Wind Speed Gust Speed Precip Events Conditions
12:51 AM 28.0 °F - 9.0 °F 45% 30.32 in 10.0 mi Calm Calm - N/A   Clear
1:51 AM 27.0 °F 23.0 °F 10.0 °F 49% 30.31 in 10.0 mi NW 3.5 mph - N/A   Clear
2:51 AM 25.0 °F - 12.0 °F 58% 30.29 in 10.0 mi Calm Calm - N/A   Clear
3:51 AM 23.0 °F 14.7 °F 14.0 °F 68% 30.27 in 10.0 mi NW 6.9 mph - N/A   Clear
4:51 AM 24.1 °F 17.0 °F 12.9 °F 62% 30.27 in 10.0 mi NW 5.8 mph - N/A   Clear
5:51 AM 24.1 °F 18.2 °F 12.9 °F 62% 30.27 in 10.0 mi NW 4.6 mph - N/A   Partly Cloudy
6:51 AM 26.1 °F 21.9 °F 15.1 °F 63% 30.29 in 10.0 mi NNW 3.5 mph - N/A   Overcast
8:51 AM 37.0 °F 33.3 °F 21.9 °F 54% 30.28 in 10.0 mi South 4.6 mph - N/A   Mostly Cloudy
11:51 AM 46.9 °F - 14.0 °F 27% 30.17 in 10.0 mi South 9.2 mph 20.7 mph N/A   Overcast
12:51 PM 48.9 °F - 17.1 °F 28% 30.13 in 10.0 mi South 11.5 mph 21.9 mph 0.00 in Rain Light Rain
1:51 PM 51.1 °F - 18.0 °F 27% 30.09 in 10.0 mi South 11.5 mph 21.9 mph 0.00 in   Partly Cloudy
2:51 PM 53.1 °F - 21.0 °F 29% 30.04 in 10.0 mi South 12.7 mph 21.9 mph N/A   Partly Cloudy
3:51 PM 55.0 °F - 21.9 °F 28% 30.01 in 10.0 mi South 11.5 mph 20.7 mph N/A   Clear
4:51 PM 54.0 °F - 26.1 °F 34% 29.96 in 10.0 mi South 12.7 mph 21.9 mph N/A   Clear
5:51 PM 53.1 °F - 30.0 °F 41% 29.96 in 10.0 mi South 8.1 mph - N/A   Clear
6:51 PM 52.0 °F - 30.0 °F 43% 29.98 in 10.0 mi South 9.2 mph - N/A   Scattered Clouds
7:51 PM 50.0 °F - 30.9 °F 48% 29.98 in 10.0 mi Variable 6.9 mph - N/A   Clear
8:51 PM 48.0 °F - 32.0 °F 54% 29.99 in 10.0 mi South 5.8 mph - N/A   Clear
9:51 PM 46.9 °F - 32.0 °F 56% 29.98 in 10.0 mi South 8.1 mph - N/A   Clear
10:51 PM 45.0 °F - 34.0 °F 65% 29.97 in 10.0 mi Calm Calm - N/A   Clear
11:51 PM 44.1 °F 42.5 °F 35.1 °F 71% 29.96 in 10.0 mi South 3.5 mph - N/A   Partly Cloudy